Location: Paralde Spring
(38.5794°N, 119.0140°W)
Time: 23:58:58
(UTC+00:00)

USA 234 - Pass Details

Date: 18 September 2020
Orbit: 1102 x 1106 km, 123.0° (Epoch: 16 October)

Event Time Altitude Azimuth Distance (km) Brightness Sun altitude
Rises 12:44:26 0° 160° (SSE) 3,902 6.3 -11.8°
Reaches altitude 10° 12:47:08 10° 168° (SSE) 2,947 5.5 -11.2°
Maximum altitude 12:53:01 36° 233° (SW) 1,663 3.8 -10.1°
Drops below altitude 10° 12:58:57 10° 298° (WNW) 2,961 5.1 -9.0°
Sets 13:01:41 0° 307° (NW) 3,922 5.7 -8.4°
